Spokane Fairchild, WA

2:58 AM PDT on September 23, 2017 (GMT -0700)
Fairchild Air Force Base

Weather History for KSKA - November, 2012

Change the Weather History Date:

Monday, November 5, 2012

  Actual Average Record
Temperature  
Mean Temperature 48 °F -  
Max Temperature 56 °F 44 °F 63 °F (2016)
Min Temperature 39 °F 28 °F 14 °F (2003)
Degree Days  
Heating Degree Days 18    
Moisture  
Dew Point 48 °F    
Average Humidity 100    
Maximum Humidity 100    
Minimum Humidity 100    
Precipitation  
Precipitation 0.00 in - - ()
Sea Level Pressure  
Sea Level Pressure 30.22 in    
Wind  
Wind Speed 10 mph (South)    
Max Wind Speed 23 mph    
Max Gust Speed 29 mph    
Visibility 7 miles    
Events Fog    
Averages and records for this station are not official NWS values.
T = Trace of Precipitation, MM = Missing Value Source: NWS Daily Summary

Daily Weather History Graph

Daily Weather History Graph

Search for Another Location

Airport or City:

Trip Planner

Search our weather history database for the weather conditions in past years. The results will help you decide how hot, cold, wet, or windy it might be!

Date:

Astronomy

Nov. 05, 2012 Rise Set
Actual Time 6:41 AM PST 4:26 PM PST
Civil Twilight 6:08 AM PST 4:58 PM PST
Nautical Twilight 5:32 AM PST 5:35 PM PST
Astronomical Twilight 4:56 AM PST 6:11 PM PST
Moon 10:09 PM PST (11/5) 12:04 PM PST (11/5)
Length of Visible Light 10h 49m
Length of Day
9h 44m
Waning Gibbous, 62% of the Moon is Illuminated
Nov 5
Waning Gibbous
Nov 6
Last Quarter
Nov 13
New
Nov 20
First Quarter
Nov 28
Full

Hourly Weather History & Observations

Time (PST) Temp. Windchill Dew Point Humidity Pressure Visibility Wind Dir Wind Speed Gust Speed Precip Events Conditions
12:55 AM 52.5 °F - 52.5 °F 100% 30.25 in 10.0 mi South 8.1 mph - N/A   Overcast
1:55 AM 52.0 °F - 52.0 °F 100% 30.22 in 10.0 mi South 13.8 mph - N/A   Clear
2:55 AM 52.2 °F - 52.2 °F 100% 30.20 in 10.0 mi South 18.4 mph 25.3 mph N/A   Clear
3:55 AM 51.4 °F - 51.4 °F 100% 30.18 in 10.0 mi South 18.4 mph 23.0 mph N/A   Mostly Cloudy
4:14 AM 51.8 °F - 51.8 °F 100% 30.17 in 10.0 mi South 17.3 mph - N/A   Mostly Cloudy
4:55 AM 51.4 °F - 51.4 °F 100% 30.19 in 10.0 mi South 20.7 mph 25.3 mph N/A   Scattered Clouds
5:18 AM 51.8 °F - 51.8 °F 100% 30.19 in 10.0 mi South 18.4 mph 23.0 mph N/A   Overcast
5:35 AM 51.8 °F - 51.8 °F 100% 30.20 in 10.0 mi South 15.0 mph 21.9 mph N/A   Overcast
5:41 AM 51.8 °F - 51.8 °F 100% 30.20 in 10.0 mi South 18.4 mph 23.0 mph N/A   Overcast
5:47 AM 51.8 °F - 51.8 °F 100% 30.20 in 10.0 mi South 18.4 mph - N/A   Overcast
5:55 AM 51.6 °F - 51.6 °F 100% 30.19 in 10.0 mi South 18.4 mph - N/A   Overcast
5:57 AM 51.8 °F - 51.8 °F 100% 30.19 in 10.0 mi South 18.4 mph - N/A   Overcast
6:02 AM 51.8 °F - 51.8 °F 100% 30.19 in 10.0 mi South 21.9 mph 28.8 mph N/A   Overcast
6:55 AM 52.0 °F - 52.0 °F 100% 30.21 in 10.0 mi SSW 16.1 mph 23.0 mph N/A   Overcast
7:06 AM 51.8 °F - 51.8 °F 100% 30.21 in 10.0 mi South 23.0 mph 27.6 mph N/A   Overcast
7:13 AM 51.8 °F - 51.8 °F 100% 30.22 in 10.0 mi SSW 15.0 mph 27.6 mph N/A   Overcast
7:32 AM 51.8 °F - 51.8 °F 100% 30.22 in 10.0 mi SSW 16.1 mph 20.7 mph N/A   Overcast
7:55 AM 52.5 °F - 52.5 °F 100% 30.23 in 10.0 mi SSW 16.1 mph 24.2 mph N/A   Overcast
8:55 AM 53.2 °F - 53.2 °F 100% 30.25 in 10.0 mi South 12.7 mph - N/A   Overcast
9:11 AM 53.6 °F - 53.6 °F 100% 30.25 in 10.0 mi SSW 16.1 mph - N/A   Overcast
9:55 AM 53.8 °F - 53.8 °F 100% 30.25 in 10.0 mi SSW 11.5 mph - N/A   Partly Cloudy
10:19 AM 53.6 °F - 53.6 °F 100% 30.27 in 10.0 mi South 10.4 mph - N/A   Mostly Cloudy
10:55 AM 55.0 °F - 55.0 °F 100% 30.27 in 10.0 mi SSW 11.5 mph - N/A   Overcast
11:55 AM 55.6 °F - 55.6 °F 100% 30.27 in 10.0 mi SSW 8.1 mph - N/A   Overcast
12:55 PM 56.1 °F - 56.1 °F 100% 30.26 in 6.2 mi SSW 11.5 mph - N/A   Mostly Cloudy
1:55 PM 56.3 °F - 56.3 °F 100% 30.26 in 10.0 mi SSW 8.1 mph - N/A   Scattered Clouds
2:58 PM 55.6 °F - 55.6 °F 100% 30.25 in 10.0 mi SSW 9.2 mph - N/A   Partly Cloudy
3:58 PM 52.9 °F - 52.9 °F 100% 30.26 in 10.0 mi WSW 2.3 mph - N/A   Clear
4:58 PM 50.4 °F - 50.4 °F 100% 30.24 in 10.0 mi South 4.6 mph - N/A   Clear
5:58 PM 49.1 °F - 49.1 °F 100% 30.24 in 10.0 mi WSW 2.3 mph - N/A   Overcast
6:58 PM 47.8 °F - 47.8 °F 100% 30.23 in 10.0 mi Calm Calm - N/A   Mostly Cloudy
7:58 PM 45.1 °F - 45.1 °F 100% 30.24 in 10.0 mi ENE 2.3 mph - N/A   Clear
8:05 PM 42.8 °F 40.1 °F 42.8 °F 100% 30.23 in 10.0 mi SE 4.6 mph - N/A   Clear
8:19 PM 39.2 °F 35.9 °F 39.2 °F 100% 30.23 in 3.0 mi SE 4.6 mph - N/A   Clear
8:24 PM 41.0 °F 39.0 °F 41.0 °F 100% 30.23 in 3.0 mi SE 3.5 mph - N/A   Partly Cloudy
8:49 PM 44.6 °F - 44.6 °F 100% 30.23 in 10.0 mi South 2.3 mph - N/A   Light Drizzle
8:58 PM 43.5 °F 41.9 °F 43.5 °F 100% 30.24 in 10.0 mi South 3.5 mph - 0.00 in   Light Drizzle
9:07 PM 44.6 °F 43.1 °F 44.6 °F 100% 30.23 in 10.0 mi SW 3.5 mph - N/A   Clear
9:17 PM 44.6 °F - 44.6 °F 100% 30.22 in 1.5 mi SW 2.3 mph - N/A   Clear
9:22 PM 44.6 °F - 44.6 °F 100% 30.22 in 4.0 mi SW 2.3 mph - N/A   Clear
9:32 PM 44.6 °F - 44.6 °F 100% 30.22 in 0.8 mi South 2.3 mph - N/A   Clear
9:37 PM 44.6 °F - 44.6 °F 100% 30.22 in 3.0 mi South 2.3 mph - N/A   Clear
9:52 PM 44.6 °F - 44.6 °F 100% 30.22 in 0.5 mi South 1.2 mph - N/A Fog Fog
9:58 PM 44.2 °F - 44.2 °F 100% 30.22 in 3.0 mi Calm Calm - N/A   Scattered Clouds
10:03 PM 44.6 °F - 44.6 °F 100% 30.21 in 3.0 mi SW 1.2 mph - N/A   Scattered Clouds
10:28 PM 44.6 °F 43.1 °F 44.6 °F 100% 30.21 in 0.8 mi SE 3.5 mph - N/A   Scattered Clouds
10:33 PM 44.6 °F - 44.6 °F 100% 30.21 in 3.0 mi ESE 2.3 mph - N/A   Scattered Clouds
10:38 PM 44.6 °F - 44.6 °F 100% 30.21 in 3.0 mi Calm Calm - N/A   Scattered Clouds
10:43 PM 44.6 °F - 44.6 °F 100% 30.21 in 0.5 mi South 2.3 mph - N/A Fog Fog
10:48 PM 44.6 °F - 44.6 °F 100% 30.21 in 1.0 mi South 2.3 mph - N/A   Partly Cloudy
10:53 PM 42.8 °F - 42.8 °F 100% 30.21 in 1.2 mi SSW 2.3 mph - N/A   Partly Cloudy
10:58 PM 43.5 °F 41.9 °F 43.5 °F 100% 30.21 in 1.8 mi South 3.5 mph - N/A   Partly Cloudy
11:00 PM 42.8 °F 41.1 °F 42.8 °F 100% 30.21 in 1.0 mi SSE 3.5 mph - N/A   Partly Cloudy
11:05 PM 42.8 °F - 42.8 °F 100% 30.21 in 1.2 mi SE 2.3 mph - N/A   Clear
11:10 PM 41.0 °F - 41.0 °F 100% 30.20 in 1.5 mi Calm Calm - N/A   Clear
11:15 PM 41.0 °F - 41.0 °F 100% 30.21 in 1.2 mi Calm Calm - N/A   Clear
11:20 PM 41.0 °F - 41.0 °F 100% 30.21 in 2.5 mi Calm Calm - N/A   Clear
11:25 PM 41.0 °F - 41.0 °F 100% 30.21 in 9.0 mi East 2.3 mph - N/A   Clear
11:40 PM 42.8 °F - 42.8 °F 100% 30.21 in 1.2 mi East 1.2 mph - N/A   Clear
11:45 PM 41.0 °F - 41.0 °F 100% 30.21 in 0.5 mi Calm Calm - N/A Fog Fog
11:55 PM 41.0 °F - 41.0 °F 100% 30.20 in 4.0 mi East 1.2 mph - N/A   Clear
11:58 PM 41.0 °F - 41.0 °F 100% 30.23 in 0.8 mi East 1.2 mph - 0.00 in   Clear